CRE (WAAS/PRN 138)

Last updated on Jan. 18, 2021, 6:32 a.m. UTC

1 28868U 05036A   21017.65930222 -.00000075  00000-0  00000-0 0  9999
2 28868   0.0134   3.5611 0001963 336.3656 267.3896  1.00271323 26636
UTC
Height (km)
Latitude
Longitude
Inclination
Orbital Period
UTC large
Height (km)
Speed (km/s)
/
Latitude / Longitude
Inclination (degrees)
Orbital Period (minutes)
Azimuth
Elevation
Range (km)
Doppler Factor
iOS Compass Heading
iOS Angle

Next 30 passes for location: Hong Kong

Rise time Rise Azimuth (degrees) Set time Set Azimuth (degrees) Duration Max altitude (degrees)

No matching passes for this satellites